User: anonymous   Login
Location: Kuppenheim
(48.8299°N, 8.2568°E)
Time: 08:41:36
(UTC+00:00)
Language:

Cosmos 1943 Rocket - Orbit

View from above orbital plane
View from above orbital plane
View from above satellite
View from above satellite

Ground track
Ground track

The orbit data is extracted from the following two-line orbital elements,

1 19120U 88039B   21267.73664806 -.00000119  00000-0 -33596-4 0  9992
2 19120  71.0113 267.4602 0023710 311.3419  48.5666 14.19224636727526
Epoch (UTC): 24 September 2021 17:40:46
Eccentricity: 0.0023710
inclination: 71.0113°
perigee height: 811 km
apogee height: 845 km
right ascension of ascending node: 267.4602°
argument of perigee: 311.3419°
revolutions per day: 14.19224636
mean anomaly at epoch: 48.5666°
orbit number at epoch: 72752

The dashed part of the orbit path shows where the satellite is in the earth's shadow,  

DLR